#timestamp,LO_Frequency,Hit,StdDev 
1633507215.8,286046999.9,N
1633507235.7,286047000.1,N
1633507255.5,286047001.0,N
1633507275.4,286047000.5,N
1633507295.2,286046998.1,N
1633507315.0,286046998.3,N
1633507315.9,286046998.3,N
1633507335.8,286046999.0,N
1633507355.6,286046998.9,N
1633507375.4,286046998.8,N
1633507395.3,286047000.9,N
1633507415.1,286046999.0,N
1633507435.9,286046999.2,N
1633507455.7,286046997.3,N
1633507475.5,286046997.4,N
1633507495.4,286046994.9,N
1633507515.2,286046994.9,N
1633507535.0,286046997.7,N
1633507535.9,286046997.7,N
1633507555.8,286046997.7,N
1633507575.6,286046997.1,N
1633507595.5,286046996.9,N
1633507615.3,286046999.6,N
1633507635.1,286047001.0,N
1633507655.9,286046997.1,N
1633507705.7,286046999.3,E
1633507715.7,286047000.7,N
1633507735.5,286046996.9,P
1633507755.3,286046997.0,N
1633507775.2,286046996.6,N
1633507795.0,286047000.9,N
1633507795.9,286047000.9,N
1633507815.7,286046999.4,N
1633507835.6,286047000.9,N
1633507855.4,286047000.8,N
1633507875.3,286047000.4,N
1633507895.1,286047000.7,N
1633507915.8,286046998.3,N
1633507935.7,286046998.7,N
1633507955.5,286046999.4,N
1633507975.4,286046998.9,N
1633507995.2,286046998.8,N
1633508015.0,286046998.5,N
1633508015.9,286046998.5,N
1633508035.8,286046998.4,N
1633508055.6,286046998.3,N
1633508075.4,286046997.4,N
1633508095.3,286046997.5,N
1633508115.1,286046997.2,N
1633508135.9,286046996.9,N
1633508155.7,286046998.0,N
1633508175.5,286046998.0,N
1633508195.4,286046993.4,Y
1633508215.2,286046997.1,P
1633508235.1,286046997.2,P
1633508236.0,286046997.2,P
1633508255.8,286046996.9,Y
1633508275.6,286047002.4,P
1633508295.5,286047001.1,N
1633508315.3,286047000.6,N
1633508335.2,286047000.1,N
1633508355.9,286047000.2,N
1633508375.7,286047000.9,N
1633508395.6,286046999.8,N
1633508415.4,286046999.9,N
1633508435.2,286047000.9,N
1633508455.1,286047000.8,N
1633508456.0,286047000.8,N
1633508475.8,286047000.3,N
1633508495.7,286046998.1,N
1633508515.5,286046998.5,N
1633508535.3,286046999.1,N
1633508555.2,286047001.2,N
1633508575.9,286046999.2,N
1633508595.7,286046999.4,N
1633508615.6,286046998.1,N
1633508635.4,286047001.0,N
1633508655.2,286047001.2,N
1633508675.1,286047001.0,N
1633508676.0,286047001.0,N
1633508695.8,286046998.6,N
1633508715.7,286047000.6,N
1633508735.5,286047000.8,N
1633508755.3,286047000.9,N
1633508775.2,286046998.1,N
1633508795.0,286046998.1,N
1633508795.9,286046998.1,N
1633508815.8,286046998.5,N
1633508835.6,286047000.7,N
1633508855.4,286046999.9,N
1633508875.3,286047002.5,N
1633508895.1,286046999.8,N
1633508915.8,286047000.7,N
1633508935.7,286047002.4,N
1633508955.5,286047002.6,N
1633508975.4,286047002.6,N
1633508995.2,286047002.5,N
1633509015.0,286047002.4,N
1633509015.9,286047002.4,N
1633509035.8,286047002.4,N
1633509055.6,286047002.8,N
1633509075.5,286047002.7,N
1633509095.3,286047000.3,N
1633509115.1,286046999.8,N
1633509135.9,286047002.6,N
1633509155.7,286047002.7,N
1633509175.5,286047002.8,N
1633509195.4,286047002.3,N
1633509215.2,286046999.7,N
1633509235.1,286047002.2,N
1633509236.0,286047002.2,N
1633509255.8,286047001.7,N
1633509275.6,286047006.0,Y
1633509295.5,286047003.9,P
1633509315.3,286047001.4,N
1633509335.2,286047002.6,N
1633509355.9,286047004.4,Y
1633509375.7,286046999.6,P
1633509395.6,286046999.3,N
1633509415.4,286046998.1,N
1633509435.2,286046998.2,N
1633509455.1,286046998.1,N
1633509456.0,286046998.1,N
1633509475.8,286047001.1,N
1633509495.7,286046996.5,N
1633509515.5,286046997.0,N
1633509535.3,286046997.2,N
1633509555.2,286046997.3,N
1633509575.0,286046998.0,N
1633509575.9,286046998.0,N
1633509595.8,286046997.9,N
1633509615.6,286046998.7,N
1633509635.4,286046998.3,N
1633509655.3,286046996.6,N
1633509675.1,286046997.0,N
1633509695.8,286046996.6,N
1633509715.7,286046999.4,N
1633509735.5,286046999.0,N
1633509755.3,286046997.1,N
1633509775.2,286046997.1,N
1633509795.0,286046997.4,N
1633509795.9,286046997.4,N
1633509815.8,286046996.6,N
1633509835.6,286046999.6,N
1633509855.4,286046999.0,N
1633509875.3,286046998.2,N
1633509895.1,286047002.0,N
1633509915.9,286047004.0,Y
1633509935.7,286047004.7,P
1633509955.5,286047007.0,N
1633509975.4,286047007.2,N
1633509995.2,286047007.1,N
1633510015.0,286047007.0,N
1633510015.9,286047007.0,N
1633510035.8,286047006.8,N
1633510055.6,286047006.9,N
1633510075.5,286047006.6,N
1633510095.3,286047005.4,N
1633510115.1,286047005.6,N
1633510135.9,286047004.7,N
1633510155.7,286047002.9,N
1633510175.5,286047004.4,N
1633510195.4,286047005.6,N
1633510215.2,286047005.0,N
1633510235.1,286047003.3,N
1633510236.0,286047003.3,N
1633510255.8,286047003.6,N
1633510275.6,286047001.7,N
1633510295.5,286047002.4,N
1633510315.3,286046998.2,N
1633510335.1,286047000.0,N
1633510355.9,286047000.5,N
1633510375.7,286047001.2,N
1633510395.6,286047000.6,N
1633510415.4,286047002.3,N
1633510435.2,286047001.9,N
1633510455.1,286047000.0,N
1633510456.0,286047000.0,N
1633510475.8,286046999.7,N
1633510495.6,286047002.4,N
1633510515.5,286046999.7,N
1633510535.3,286047000.3,N
1633510555.2,286046999.1,N
1633510575.9,286046999.2,N
1633510595.7,286046999.6,N
1633510615.6,286047000.6,N
1633510635.4,286046998.5,N
1633510655.2,286047000.9,N
1633510675.1,286047000.3,N
1633510676.0,286047000.3,N
1633510695.8,286047000.7,N
1633510715.7,286046998.1,N
1633510735.5,286046998.1,N
1633510755.3,286046998.3,N
1633510775.2,286047000.9,N
1633510795.0,286046999.9,N
1633510795.9,286046999.9,N
